• In Uzbekistan
  • List of Countries
  • For 7 days
  • Water Temperature
  • Satellite Maps
  • Weather Map
  • Weather Widgets
  • user-avatar
    Login

    Hourly Weather Masvingo

    Today, 21 November, Tuesday

    Time Temperature Precipitation Wind Pressure Humidity
    00:00 +21°C° 0 mm 1 mps 672 mmHg 34%
    01:00 +21°C° 0 mm 1 mps 672 mmHg 36%
    02:00 +20°C° 0 mm 1 mps 671 mmHg 39%
    03:00 +20°C° 0 mm 1 mps 671 mmHg 40%
    04:00 +19°C° 0 mm 1 mps 671 mmHg 41%
    05:00 +19°C° 0 mm 1 mps 671 mmHg 43%
    06:00 +22°C° 0 mm 1 mps 671 mmHg 38%
    07:00 +24°C° 0 mm 1 mps 672 mmHg 33%
    08:00 +27°C° 0 mm 1 mps 673 mmHg 28%
    09:00 +29°C° 0 mm 1 mps 673 mmHg 23%
    10:00 +31°C° 0 mm 1 mps 673 mmHg 18%
    11:00 +33°C° 0 mm 1 mps 673 mmHg 14%
    12:00 +35°C° 0 mm 2 mps 672 mmHg 13%
    13:00 +35°C° 0 mm 2 mps 672 mmHg 11%
    14:00 +36°C° 0 mm 2 mps 671 mmHg 10%
    15:00 +35°C° 0 mm 2 mps 671 mmHg 11%
    16:00 +34°C° 0 mm 2 mps 670 mmHg 12%
    17:00 +34°C° 0 mm 3 mps 670 mmHg 12%
    18:00 +31°C° 0 mm 2 mps 670 mmHg 15%
    19:00 +28°C° 0 mm 2 mps 670 mmHg 19%
    20:00 +26°C° 0 mm 1 mps 669 mmHg 22%
    21:00 +25°C° 0 mm 1 mps 670 mmHg 24%
    22:00 +25°C° 0 mm 1 mps 670 mmHg 25%
    23:00 +24°C° 0 mm 1 mps 670 mmHg 27%

    Tomorrow, 22 November, Wednesday

    Time Temperature Precipitation Wind Pressure Humidity
    00:00 +23°C° 0 mm 1 mps 670 mmHg 29%
    01:00 +23°C° 0 mm 1 mps 669 mmHg 31%
    02:00 +22°C° 0 mm 1 mps 669 mmHg 32%
    03:00 +22°C° 0 mm 1 mps 669 mmHg 34%
    04:00 +22°C° 0 mm 1 mps 669 mmHg 36%
    05:00 +21°C° 0 mm 1 mps 669 mmHg 37%
    06:00 +24°C° 0 mm 1 mps 669 mmHg 35%
    07:00 +26°C° 0 mm 2 mps 670 mmHg 33%
    08:00 +29°C° 0 mm 2 mps 671 mmHg 31%
    09:00 +31°C° 0 mm 2 mps 671 mmHg 25%
    10:00 +34°C° 0 mm 2 mps 672 mmHg 19%
    11:00 +36°C° 0 mm 2 mps 672 mmHg 13%
    12:00 +36°C° 0 mm 3 mps 671 mmHg 12%
    13:00 +37°C° 0 mm 3 mps 671 mmHg 11%
    14:00 +37°C° 0 mm 4 mps 670 mmHg 10%
    15:00 +37°C° 0 mm 4 mps 670 mmHg 11%
    16:00 +36°C° 0 mm 4 mps 669 mmHg 12%
    17:00 +35°C° 0 mm 4 mps 669 mmHg 13%
    18:00 +33°C° 0 mm 3 mps 669 mmHg 16%
    19:00 +30°C° 0 mm 3 mps 669 mmHg 19%
    20:00 +28°C° 0 mm 2 mps 669 mmHg 21%
    21:00 +27°C° 0 mm 2 mps 669 mmHg 25%
    22:00 +26°C° 0 mm 2 mps 669 mmHg 29%
    23:00 +26°C° 0 mm 2 mps 669 mmHg 33%

    Day after tomorrow, 23 November, Thursday

    Time Temperature Precipitation Wind Pressure Humidity
    00:00 +25°C° 0 mm 2 mps 669 mmHg 39%
    01:00 +24°C° 0 mm 2 mps 668 mmHg 45%
    02:00 +24°C° 0 mm 1 mps 668 mmHg 52%
    03:00 +23°C° 0 mm 1 mps 668 mmHg 55%
    04:00 +23°C° 0 mm 1 mps 669 mmHg 59%
    05:00 +22°C° 0 mm 1 mps 669 mmHg 63%
    06:00 +24°C° 0 mm 2 mps 670 mmHg 60%
    07:00 +26°C° 0 mm 3 mps 671 mmHg 56%
    08:00 +27°C° 0 mm 4 mps 672 mmHg 53%
    09:00 +29°C° 0 mm 4 mps 672 mmHg 48%
    10:00 +30°C° 0 mm 5 mps 672 mmHg 43%
    11:00 +32°C° 0 mm 5 mps 673 mmHg 38%
    12:00 +33°C° 0 mm 5 mps 672 mmHg 36%
    13:00 +33°C° 0 mm 5 mps 671 mmHg 35%
    14:00 +33°C° 0 mm 5 mps 671 mmHg 33%
    15:00 +33°C° 0 mm 5 mps 671 mmHg 34%
    16:00 +32°C° 0 mm 6 mps 670 mmHg 35%
    17:00 +30°C° 0 mm 6 mps 670 mmHg 36%
    18:00 +28°C° 0 mm 5 mps 671 mmHg 39%
    19:00 +27°C° 0 mm 4 mps 671 mmHg 41%
    20:00 +26°C° 0 mm 3 mps 671 mmHg 44%
    21:00 +25°C° 0 mm 3 mps 671 mmHg 47%
    22:00 +24°C° 0 mm 3 mps 672 mmHg 50%
    23:00 +22°C° 0 mm 3 mps 672 mmHg 54%

    24 November, Friday

    Time Temperature Precipitation Wind Pressure Humidity
    00:00 +21°C° 0 mm 3 mps 671 mmHg 62%
    01:00 +21°C° 0 mm 4 mps 671 mmHg 69%
    02:00 +20°C° 0 mm 4 mps 670 mmHg 77%
    03:00 +19°C° 0 mm 4 mps 671 mmHg 79%
    04:00 +19°C° 0 mm 3 mps 671 mmHg 82%
    05:00 +19°C° 0 mm 3 mps 671 mmHg 84%
    06:00 +20°C° 0 mm 3 mps 672 mmHg 78%
    07:00 +21°C° 0 mm 3 mps 672 mmHg 73%
    08:00 +22°C° 0 mm 3 mps 673 mmHg 67%
    09:00 +25°C° 0 mm 3 mps 673 mmHg 61%
    10:00 +26°C° 0 mm 3 mps 673 mmHg 54%
    11:00 +28°C° 0 mm 3 mps 673 mmHg 48%
    12:00 +29°C° 0 mm 3 mps 672 mmHg 43%
    13:00 +30°C° 0 mm 3 mps 672 mmHg 37%
    14:00 +33°C° 0 mm 3 mps 671 mmHg 32%
    15:00 +31°C° 0 mm 3 mps 671 mmHg 32%
    16:00 +32°C° 0 mm 4 mps 670 mmHg 32%
    17:00 +32°C° 0 mm 4 mps 670 mmHg 32%
    18:00 +29°C° 0 mm 3 mps 670 mmHg 36%
    19:00 +27°C° 0 mm 3 mps 670 mmHg 41%
    20:00 +26°C° 0 mm 3 mps 670 mmHg 45%
    21:00 +25°C° 0 mm 2 mps 670 mmHg 47%
    22:00 +24°C° 0 mm 2 mps 670 mmHg 49%
    23:00 +24°C° 0 mm 1 mps 670 mmHg 51%

    25 November, Saturday

    Time Temperature Precipitation Wind Pressure Humidity
    00:00 +23°C° 0 mm 1 mps 670 mmHg 53%
    01:00 +23°C° 0 mm 1 mps 669 mmHg 54%
    02:00 +23°C° 0 mm 1 mps 669 mmHg 56%
    03:00 +22°C° 0 mm 1 mps 669 mmHg 57%
    04:00 +22°C° 0 mm 1 mps 669 mmHg 59%
    05:00 +22°C° 0 mm 1 mps 669 mmHg 60%
    06:00 +23°C° 0 mm 1 mps 670 mmHg 55%
    07:00 +25°C° 0 mm 1 mps 671 mmHg 51%
    08:00 +27°C° 0 mm 2 mps 672 mmHg 46%
    09:00 +29°C° 0.1 mm 2 mps 672 mmHg 42%
    10:00 +31°C° 0.1 mm 2 mps 672 mmHg 37%
    11:00 +33°C° 0.1 mm 1 mps 672 mmHg 33%
    12:00 +32°C° 0.3 mm 2 mps 671 mmHg 35%
    13:00 +31°C° 0.3 mm 2 mps 670 mmHg 37%
    14:00 +30°C° 0.3 mm 2 mps 669 mmHg 39%
    15:00 +30°C° 0.8 mm 2 mps 669 mmHg 40%
    16:00 +29°C° 0.8 mm 3 mps 669 mmHg 41%
    17:00 +29°C° 0.8 mm 3 mps 669 mmHg 42%
    18:00 +28°C° 0.2 mm 4 mps 670 mmHg 48%
    19:00 +26°C° 0.2 mm 4 mps 670 mmHg 53%
    20:00 +25°C° 0.2 mm 5 mps 671 mmHg 58%
    21:00 +23°C° 0 mm 5 mps 671 mmHg 65%
    22:00 +22°C° 0 mm 5 mps 671 mmHg 71%
    23:00 +21°C° 0 mm 5 mps 671 mmHg 77%

    26 November, Sunday

    Time Temperature Precipitation Wind Pressure Humidity
    00:00 +20°C° 0 mm 4 mps 671 mmHg 79%
    01:00 +20°C° 0 mm 4 mps 670 mmHg 81%
    02:00 +19°C° 0 mm 3 mps 670 mmHg 83%
    03:00 +19°C° 0 mm 3 mps 670 mmHg 83%
    04:00 +19°C° 0 mm 2 mps 671 mmHg 83%
    05:00 +19°C° 0 mm 2 mps 671 mmHg 83%
    06:00 +20°C° 0 mm 2 mps 671 mmHg 78%
    07:00 +21°C° 0 mm 2 mps 672 mmHg 74%
    08:00 +22°C° 0 mm 3 mps 672 mmHg 69%
    09:00 +25°C° 0 mm 3 mps 672 mmHg 63%
    10:00 +27°C° 0 mm 2 mps 672 mmHg 57%
    11:00 +29°C° 0 mm 2 mps 672 mmHg 51%
    12:00 +30°C° 0 mm 3 mps 672 mmHg 48%
    13:00 +31°C° 0 mm 3 mps 671 mmHg 45%
    14:00 +31°C° 0 mm 3 mps 671 mmHg 42%
    15:00 +31°C° 0 mm 3 mps 671 mmHg 44%
    16:00 +30°C° 0 mm 3 mps 670 mmHg 46%
    17:00 +30°C° 0 mm 3 mps 670 mmHg 47%
    18:00 +28°C° 0 mm 3 mps 670 mmHg 53%
    19:00 +26°C° 0 mm 3 mps 670 mmHg 60%
    20:00 +25°C° 0 mm 3 mps 671 mmHg 66%
    21:00 +24°C° 0.7 mm 2 mps 671 mmHg 70%
    22:00 +23°C° 0.7 mm 2 mps 671 mmHg 73%
    23:00 +23°C° 0.7 mm 1 mps 671 mmHg 77%
    Show more